Location: Burbank
(38.7788°N, 114.0429°W)
Time: 19:58:16
(UTC+00:00)

Vanguard 2 Rocket - Pass Details

Date: 22 May 2026
Orbit: 553 x 3286 km, 32.9° (Epoch: 6 June)

Event Time Altitude Azimuth Distance (km) Brightness Sun altitude
Rises 00:14:30 0° 278° (W) 6,806 12.6 27.6°
Reaches altitude 10° 00:20:26 10° 266° (W) 6,046 12.8 26.4°
Maximum altitude 00:33:21 22° 224° (SW) 5,220 11.4 23.9°
Drops below altitude 10° 00:46:02 10° 181° (S) 5,850 11.0 21.5°
Sets 00:51:47 0° 168° (SSE) 6,530 11.0 20.4°
